Regional Weather Roundup
Issued by NWS State College, PA

Home | Current Version | Previous Version | Text Only | Print | Product List | Glossary Off
Versions: 1 2 3 4 5 6 7 8 9 10 11 12 13 14 15 16 17 18 19 20 21 22 23 24 25 26 27 28 29 30 31 32 33 34 35 36 37 38 39 40 41 42 43 44 45 46 47 48 49 50

000
ASUS41 KCTP 171810
RWRCTP

REGIONAL WEATHER ROUNDUP
NATIONAL WEATHER SERVICE STATE COLLEGE PA
100 PM EST TUE JAN 17 2017

Note: "fair" indicates few or no clouds below 12,000 feet with no
significant weather and/or obstructions to visibility.

* = STATION THAT DOES NOT REPORT PRECIPITATION /E.G. RAIN...SNOW...ETC/
    THUNDER OR FOG.

PAZ002>004-007>009-013>016-020>023-029>032-171900-
WESTERN PENNSYLVANIA

CITY           SKY/WX    TMP DP  RH WIND       PRES   REMARKS
ERIE           CLOUDY    55  52  89 SW12      29.76F
MEADVILLE      LGT RAIN  53  51  93 S10G21    29.80F
FRANKLIN*        N/A     52  48  87 S12G17    29.84F
NEW CASTLE     CLOUDY    56  54  93 VRB6      29.83F
BEAVER COUNTY  CLOUDY    55  54  94 SW9G17    29.84F
BUTLER*        PTSUNNY   57  55  94 SW12G18   29.88F
PITTSBURGH INT CLOUDY    59  54  83 SW14G21   29.85F
PITTSBURGH     CLOUDY    58  52  80 S14G26    29.86F
INDIANA*       CLOUDY    59  55  88 SW16G25   29.89F
LATROBE        LGT RAIN  59  55  88 SW17G29   29.89F
WASHINGTON CO* CLOUDY    57  54  88 SW8G18    29.88F
$$

PAZ004>006-010>012-017>019-024>028-033>037-041-042-045-046-049>053-171900-
CENTRAL PENNSYLVANIA

CITY           SKY/WX    TMP DP  RH WIND       PRES   REMARKS
BRADFORD       FOG       41  41 100 SE7       29.84F VSB 1
DUBOIS         FOG       42  40  92 SE7       29.86F VSB 1/4
CLEARFIELD     FOG       37  37 100 N8        29.91F VSB 1/4
JOHNSTOWN      CLOUDY    54  52  93 SW12G20   29.89F
ALTOONA        CLOUDY    37  36  96 N3        29.97F FOG
STATE COLLEGE  LGT RAIN  34  34 100 CALM      29.96F VSB 1
WILLIAMSPORT   LGT RAIN  36  33  89 NE12      30.02F FOG
SELINSGROVE    LGT RAIN  36  35  96 CALM      30.04F FOG
FT INDIANTOWN  CLOUDY    37  37 100 E6        30.06F FOG
CAPITAL CITY   CLOUDY    40  36  86 CALM      30.07F FOG
HARRISBURG     CLOUDY    38  37  97 S3        30.05F FOG
YORK           CLOUDY    41  40  96 CALM      30.05F FOG
$$

PAZ038>040-043-044-047-048-054-055-060>062-067>071-171900-
EASTERN PENNSYLVANIA

CITY           SKY/WX    TMP DP  RH WIND       PRES   REMARKS
SCRANTON       LGT RAIN  37  37 100 CALM      30.04F VSB 1/2
MOUNT POCONO   FOG       31  30  96 E7        30.03F VSB<1/4
ALLENTOWN      CLOUDY    37  33  85 E6        30.11F FOG
QUAKERTOWN*    CLOUDY    37  36  93 NE3       30.10F
READING        CLOUDY    41  33  73 E3        30.07F
LANCASTER      CLOUDY    41  41 100 SE6       30.07S FOG
COATESVILLE    CLOUDY    39  39 100 VRB6      30.07F FOG
POTTSTOWN      LGT RAIN  40  36  86 E3        30.11F FOG
BLUE BELL      CLOUDY    39  36  87 SE5       30.09F
DOYLESTOWN     CLOUDY    41  36  82 CALM      30.09F
WILLOW GROVE   NOT AVBL
NORTH PHILA    CLOUDY    43  37  79 SE9       30.11F
PHILADELPHIA   CLOUDY    42  38  85 SE6       30.11F FOG
$$




USA.gov is the U.S. government's official web portal to all federal, state and local government web resources and services.